Theta_e
325 325 325 326 326 327 328 328 329 330 330 329 331 330 331 331 331 331 331 331 332 332 332 331 331 332 332 332 331 328 326 316 313 310 307 314 318 327 330 332 333 337 332 314 312 309 306 308 311 312 309 306 306 304 305 306 309 308 300 291 291 291 294 297 292 292 294 294 295 296 296 297 298 300 303 304 305 302 305 306 307 312 313 314 315 319 323 321
325 325 325 325 325 326 327 328 328 329 329 329 330 330 330 331 331 330 330 331 332 332 331 331 332 332 332 332 330 327 322 317 311 310 310 320 326 327 330 333 334 337 323 312 309 306 306 307 308 308 306 303 307 304 306 304 308 302 296 293 293 293 296 297 294 293 294 295 295 295 295 298 299 299 302 301 300 304 304 306 306 310 313 316 317 320 320 320
323 325 325 325 325 324 325 326 328 328 328 329 328 329 330 330 329 329 329 330 331 331 331 331 331 331 331 330 327 326 322 318 316 308 313 326 330 329 331 333 334 334 316 313 312 309 307 307 307 307 305 302 302 301 303 301 306 301 298 293 294 298 299 296 294 295 293 295 294 295 295 297 298 300 301 300 298 300 301 303 305 307 309 312 315 317 318 319
322 325 325 325 325 324 325 325 326 327 328 328 328 328 329 330 330 330 330 330 330 329 330 330 331 331 330 329 326 324 322 318 313 319 323 328 327 330 331 332 337 333 318 318 313 311 315 313 310 308 305 302 303 302 301 301 301 300 298 295 299 301 297 298 295 294 293 295 294 294 295 296 297 297 299 296 300 298 301 302 306 308 310 314 315 317 317 317
321 323 324 325 325 324 324 324 325 327 327 327 327 327 327 329 330 329 329 330 330 330 330 330 331 331 329 327 325 322 319 310 312 322 323 332 331 329 331 333 336 322 317 318 320 316 313 311 310 309 304 300 301 300 297 299 301 300 298 298 300 301 298 299 297 295 294 294 294 293 296 297 297 296 295 299 297 296 300 303 306 309 315 316 316 316 317 317
319 322 324 324 324 325 324 324 324 326 327 327 327 328 328 328 329 329 329 329 329 329 331 331 330 329 328 326 322 320 314 297 313 315 327 335 333 331 330 333 334 320 316 316 316 316 312 311 311 306 303 301 299 298 297 299 302 297 296 298 298 296 299 300 299 298 295 296 295 294 296 297 295 295 293 297 298 295 297 299 306 309 318 319 319 318 316 316
319 322 324 324 324 324 324 324 324 323 327 327 327 327 328 328 328 329 329 328 329 328 330 330 329 329 327 325 321 319 311 312 316 318 329 335 335 333 331 334 329 317 315 313 313 312 311 309 307 304 303 302 301 298 301 300 301 298 296 297 300 298 297 298 302 297 295 295 295 296 299 299 296 296 295 293 295 298 296 294 299 309 318 319 317 317 317 317
319 320 323 323 323 323 323 323 323 324 325 327 326 327 328 327 328 328 328 328 329 328 330 330 329 328 325 321 316 312 310 308 319 322 329 332 333 331 329 322 318 314 313 311 311 310 310 309 306 306 302 301 301 301 301 300 300 298 296 297 298 297 296 297 299 299 299 299 296 298 299 298 295 297 296 295 297 297 296 297 302 315 317 318 318 317 318 317
318 319 322 322 322 322 323 323 323 323 323 326 326 327 328 328 328 328 328 328 328 328 327 329 328 326 326 321 314 308 307 317 325 325 323 326 327 326 322 318 315 313 311 311 312 312 310 306 309 309 302 302 304 302 301 300 297 298 298 297 297 297 298 298 300 300 299 301 298 299 297 296 296 298 297 302 302 300 298 299 304 314 316 317 317 318 318 317
318 319 322 322 322 322 322 322 323 323 323 324 325 326 327 327 328 327 328 328 327 326 328 327 327 325 320 317 312 303 313 316 326 325 324 324 323 321 320 318 314 312 310 310 311 312 309 309 310 314 311 308 305 302 302 301 298 299 298 297 298 298 298 300 298 298 300 301 300 301 298 299 300 297 295 296 299 299 299 304 305 314 315 317 317 318 318 318
318 319 322 322 322 322 322 322 322 322 322 322 324 326 327 327 327 327 328 328 328 328 327 326 326 323 317 317 308 303 317 323 324 325 323 322 320 319 317 315 314 311 311 309 310 313 312 313 315 314 311 307 306 304 302 302 301 300 299 298 298 298 300 300 300 298 300 301 298 301 298 298 297 297 298 301 299 296 296 302 305 312 315 317 317 318 318 319
318 319 321 321 321 322 322 322 322 322 323 322 325 325 325 326 326 326 326 327 328 327 327 326 324 321 318 315 309 307 318 323 326 324 323 322 318 317 318 319 314 312 311 309 310 312 314 314 314 311 305 311 303 302 301 302 302 300 300 297 297 297 298 298 299 299 299 300 299 299 298 297 297 296 296 302 304 296 296 297 305 308 313 315 317 317 318 319
318 318 319 321 321 322 323 323 324 323 323 324 325 324 325 326 326 326 326 326 328 327 326 326 323 319 314 307 312 317 316 322 326 324 324 323 321 319 318 318 316 314 313 312 310 315 315 315 314 310 310 309 305 303 305 304 301 300 300 297 296 296 295 299 300 300 299 301 297 300 291 295 298 301 299 301 302 299 297 295 299 305 307 312 315 317 317 318
318 318 319 320 320 321 322 323 323 323 324 324 324 324 324 325 325 326 326 325 327 326 326 325 321 316 312 308 316 319 320 324 326 322 321 323 320 317 319 318 316 316 317 315 315 317 317 317 316 313 315 308 304 311 305 302 300 296 297 297 291 292 292 297 300 299 299 300 299 300 292 296 300 299 301 301 300 301 300 300 296 300 304 305 310 315 317 318
317 317 319 319 320 320 321 322 323 323 324 324 323 323 324 325 325 326 326 326 327 325 325 324 319 312 306 309 318 320 327 324 320 320 322 319 317 316 317 318 316 316 315 315 315 319 320 316 314 309 308 311 309 305 299 299 298 296 296 292 293 293 293 296 299 300 298 299 300 300 293 296 300 300 300 300 300 299 300 300 298 296 299 303 305 309 314 317
317 318 318 319 319 320 320 321 322 323 323 323 323 322 323 324 325 325 325 324 325 325 320 314 313 310 304 302 311 322 321 315 316 322 322 321 318 315 318 316 318 316 317 316 320 322 320 318 311 310 308 309 306 301 298 296 295 296 296 292 291 291 291 293 298 298 301 298 300 300 294 296 296 298 301 300 298 297 298 298 297 296 297 298 302 306 309 313
317 318 318 319 319 319 320 320 321 322 322 322 322 321 321 323 324 325 323 322 321 321 317 309 313 310 299 308 317 313 310 314 320 320 320 322 320 317 316 314 313 316 317 317 317 318 317 313 311 310 311 305 305 300 294 293 290 292 294 291 293 292 292 291 294 297 298 298 296 297 296 298 299 299 296 297 298 297 296 298 299 299 298 298 298 302 306 309
317 317 317 319 319 319 320 320 320 321 321 321 320 319 317 323 322 318 316 313 312 313 312 315 310 305 301 308 303 308 315 314 318 319 319 321 320 318 315 312 313 314 314 312 314 311 312 307 308 302 304 303 303 299 294 290 293 290 290 291 294 295 295 294 294 295 297 296 295 294 294 297 299 301 299 299 294 296 296 298 299 300 299 297 297 298 302 306
317 317 316 319 319 319 319 319 320 320 321 321 321 321 319 318 315 314 309 307 305 300 297 299 301 292 291 301 307 312 311 316 321 319 315 317 318 319 317 316 314 310 306 307 306 309 307 305 304 301 297 299 299 300 298 297 297 294 294 293 292 292 292 292 295 296 298 295 294 294 293 296 298 299 300 301 300 297 298 297 296 297 297 295 296 298 299 301
317 316 317 318 318 319 319 319 320 320 321 317 312 311 307 303 303 301 307 307 302 301 305 305 306 301 299 302 306 310 316 321 314 316 316 318 316 314 313 313 309 310 305 300 304 306 307 299 296 296 299 300 302 302 302 300 300 297 296 294 293 292 292 294 295 298 297 296 294 296 296 296 298 299 300 300 298 296 298 298 297 296 297 297 295 297 299 301
316 316 317 318 318 318 319 319 319 320 319 314 312 306 296 298 294 292 300 304 306 303 300 305 306 299 300 302 306 310 308 309 314 314 315 319 316 311 306 308 304 300 302 304 302 308 306 297 297 301 302 303 302 302 301 300 300 298 296 294 293 293 293 295 296 298 294 296 290 294 295 296 297 299 300 298 295 296 298 298 297 297 297 297 297 296 297 300
315 315 316 317 318 318 319 319 319 319 316 313 309 301 300 303 303 311 304 295 302 303 300 301 305 299 303 303 305 308 311 308 308 311 316 316 310 305 305 304 301 297 302 303 302 299 297 295 300 302 303 303 302 302 301 299 298 297 296 294 292 293 293 296 296 293 293 295 293 292 291 293 296 298 299 298 298 300 301 299 299 298 298 298 299 299 298 298
315 314 314 314 316 317 318 318 318 316 311 308 303 301 300 304 305 307 303 299 297 302 301 301 302 299 301 305 306 307 305 304 304 309 311 313 307 305 305 301 299 298 300 300 295 294 292 297 302 304 303 301 300 301 301 299 299 296 293 291 292 294 293 292 295 291 291 294 288 288 289 292 295 297 297 298 299 300 301 300 300 300 299 300 301 301 301 300
314 314 314 313 315 317 318 318 318 312 309 307 303 299 301 307 307 306 297 287 288 298 303 302 301 299 299 303 309 306 304 304 307 304 315 311 304 307 304 301 298 298 295 297 297 294 294 302 304 303 301 301 298 300 299 298 296 297 295 292 292 291 295 294 293 291 292 293 292 291 291 292 294 294 297 300 298 298 300 300 300 300 301 302 302 302 302 303
314 313 313 313 314 316 316 316 309 306 308 305 300 301 304 307 306 303 296 286 285 289 303 303 302 302 304 305 306 304 300 301 301 310 314 312 306 304 301 305 300 295 296 298 297 296 296 302 305 303 301 300 299 297 298 298 295 295 296 296 295 295 295 295 293 293 289 290 292 292 284 284 289 295 297 299 293 293 296 296 298 300 301 301 301 302 303 304
314 313 313 314 314 312 315 306 305 308 304 300 301 303 305 305 302 298 291 276 276 285 297 291 306 300 309 300 302 301 304 299 304 310 313 313 313 307 305 301 302 294 297 297 296 296 296 302 303 301 300 299 299 297 299 299 295 293 295 299 297 297 296 294 290 293 287 288 291 291 288 285 283 288 290 292 292 294 296 294 298 299 300 300 301 303 304 305
314 313 313 313 313 312 306 300 309 307 300 299 303 304 304 304 301 299 290 277 272 287 287 299 298 295 305 300 302 303 290 294 306 309 311 314 307 308 301 299 301 301 301 300 296 292 300 300 301 301 300 298 297 296 299 299 295 293 295 298 298 297 295 294 293 294 290 291 291 287 288 285 286 292 293 293 292 293 295 295 295 296 297 298 299 301 302 304
314 313 312 313 313 313 303 308 306 302 301 305 306 305 304 302 299 295 285 271 267 294 288 293 295 302 301 303 303 297 293 302 297 304 313 313 310 304 302 299 298 298 300 298 287 298 299 297 299 299 299 298 296 300 301 301 297 292 295 300 297 297 295 293 293 290 289 290 288 287 287 284 283 285 288 292 293 294 296 298 300 300 300 300 300 300 300 302
314 314 313 312 314 313 310 307 305 300 304 307 306 305 304 302 297 287 275 269 284 280 299 293 305 299 298 301 298 296 295 298 293 304 311 310 311 306 299 301 301 300 300 298 292 296 300 301 301 302 299 296 300 302 302 302 297 295 296 299 296 294 293 293 289 291 289 288 287 289 287 285 288 286 290 288 288 291 295 298 300 301 302 303 302 301 301 301
314 314 314 313 311 308 307 308 304 306 308 308 306 305 303 298 291 281 272 262 285 274 292 295 295 292 299 295 294 297 293 294 297 303 306 303 307 308 304 308 302 299 297 299 297 297 300 303 305 302 299 301 302 302 302 302 300 298 299 297 293 287 285 287 287 286 288 286 288 293 288 289 285 287 292 290 290 292 294 295 298 299 299 300 300 301 301 300
313 313 313 314 306 306 306 301 304 308 308 307 306 305 300 292 280 275 268 275 284 283 294 292 289 300 294 292 290 294 292 293 296 302 298 303 300 304 304 299 303 298 296 296 294 296 299 301 301 300 306 303 303 298 300 302 300 299 294 292 293 289 288 289 285 287 285 285 291 294 289 290 284 286 290 295 291 291 297 297 299 299 299 299 299 299 298 298
313 313 313 311 309 309 302 299 306 309 307 307 305 299 293 278 281 273 271 288 273 281 286 287 294 293 293 295 293 292 290 290 296 299 297 297 296 295 297 292 296 287 286 288 288 295 293 296 299 300 303 303 299 298 295 298 299 298 294 294 290 284 287 283 286 283 284 285 286 288 290 285 288 293 288 288 291 295 293 296 298 298 298 297 296 296 296 296
312 312 313 311 309 306 306 308 308 307 306 305 300 295 284 277 270 277 278 276 267 286 284 293 290 292 292 292 290 293 292 288 295 297 300 299 297 297 299 298 300 295 285 291 290 290 291 297 299 298 300 304 302 295 291 292 296 296 294 291 287 283 282 281 284 286 286 289 286 285 288 288 293 294 298 299 299 298 298 297 297 296 296 296 296 296 296 295
312 311 308 309 308 308 308 309 308 306 304 302 295 288 282 274 272 285 278 273 276 287 291 288 291 291 291 287 289 293 288 291 294 294 298 294 295 293 295 298 298 295 289 288 288 289 284 285 292 298 294 303 301 300 298 296 296 296 298 295 290 288 284 280 282 280 282 284 285 287 288 283 284 287 289 296 300 299 295 296 295 296 296 297 296 295 296 296
312 310 308 308 306 307 308 308 308 307 302 297 290 283 275 273 279 277 276 273 277 285 287 291 288 288 286 287 289 292 292 287 294 294 294 293 290 292 293 294 299 298 291 287 289 290 289 289 296 303 302 303 299 303 303 298 295 297 295 296 291 288 288 284 280 284 286 283 279 282 286 287 291 291 292 292 293 294 294 294 294 293 294 292 292 294 295 296
309 307 308 303 304 305 308 308 307 305 300 293 285 280 276 279 275 281 279 284 281 285 287 289 288 285 285 285 287 289 294 287 291 292 291 292 293 292 297 297 297 299 294 289 291 284 288 286 296 301 302 301 301 303 301 302 288 294 295 290 293 295 291 283 281 281 280 280 281 281 284 288 290 296 298 298 295 296 295 294 294 294 294 289 291 293 294 295
303 305 301 303 303 306 307 307 306 303 298 291 284 278 283 281 281 283 288 285 283 289 288 281 283 283 283 282 284 288 289 288 289 290 286 292 289 292 294 296 300 299 300 295 290 292 287 288 297 297 295 301 305 304 303 303 300 295 288 295 296 295 292 289 281 277 276 276 278 285 283 285 282 284 292 296 296 297 297 297 295 295 291 290 293 293 293 294
302 303 303 302 304 306 307 307 305 300 295 289 281 284 285 281 286 284 286 287 288 288 287 285 285 288 283 284 283 286 289 286 286 289 285 291 285 296 293 292 298 299 301 300 292 289 291 285 287 297 298 300 301 302 299 298 297 297 295 303 293 286 286 286 285 277 277 277 276 278 284 286 287 288 283 287 293 296 297 299 294 291 291 290 292 294 292 291
303 301 294 302 306 306 305 305 303 296 291 284 282 282 282 283 287 285 287 290 289 288 285 287 285 286 287 284 284 287 288 283 289 286 285 288 284 293 292 295 292 299 301 301 295 292 292 286 287 294 296 297 299 298 288 293 298 297 299 297 296 291 287 286 287 286 284 279 276 278 280 281 288 291 291 289 291 294 296 297 296 296 295 296 295 295 295 294
299 293 291 303 305 306 305 303 297 293 287 281 283 282 287 284 286 287 288 290 285 286 281 286 286 285 286 285 286 284 288 287 287 286 286 289 287 294 292 297 292 295 300 301 297 299 290 289 284 288 294 297 288 295 292 295 290 291 293 292 292 290 292 291 290 286 283 281 280 277 279 281 286 291 292 294 292 292 294 295 295 295 296 297 297 297 296 295
300 293 292 305 306 306 304 298 291 286 285 287 287 282 282 284 287 288 287 287 285 286 285 287 287 285 286 285 284 287 285 287 286 286 286 286 288 284 291 295 296 294 297 298 297 297 288 287 286 285 287 289 292 299 298 298 297 295 294 292 293 290 287 285 284 289 286 283 275 275 280 287 285 290 296 295 297 295 294 293 295 294 293 292 293 292 293 295
293 285 289 305 306 305 298 286 285 290 287 285 283 286 281 293 287 286 286 285 283 284 284 285 285 285 286 286 287 287 286 285 286 286 287 285 289 289 291 297 297 297 296 293 295 300 296 290 290 286 288 291 296 299 298 300 300 298 297 294 297 294 292 288 283 285 284 287 281 277 276 286 290 291 294 296 297 298 298 296 295 296 292 291 292 293 292 291
290 287 299 305 306 303 295 286 289 286 285 288 291 287 290 287 285 287 286 285 283 283 282 284 285 286 285 287 286 286 287 284 286 285 287 288 289 292 292 296 297 296 298 295 299 299 297 289 286 288 288 290 292 292 294 295 298 296 294 291 295 292 293 291 290 290 287 287 286 282 280 287 292 288 293 296 296 297 298 297 296 295 296 293 291 291 291 289
291 290 293 303 306 302 291 281 280 284 286 288 288 286 287 286 288 286 287 285 284 280 282 282 282 288 287 288 288 285 288 281 286 287 286 288 288 294 292 295 297 294 296 294 294 299 290 287 290 285 285 286 288 288 289 291 293 294 293 294 296 296 296 289 284 284 286 288 288 285 281 287 295 291 289 287 290 291 293 293 291 295 295 293 292 291 289 288
290 291 288 289 302 299 287 289 286 285 286 285 286 285 286 285 286 290 289 287 282 280 282 283 285 285 285 287 287 288 289 287 282 288 288 287 288 288 292 294 297 295 298 298 299 301 293 291 289 283 280 278 279 280 282 285 286 291 295 295 295 295 294 290 288 287 285 288 288 286 286 292 292 287 288 288 287 290 291 290 287 289 292 293 292 291 290 288
288 282 284 285 287 294 292 290 288 287 286 285 284 286 287 284 285 287 289 286 283 282 281 283 283 286 283 286 284 286 286 289 285 281 286 285 285 287 291 294 296 295 297 298 298 298 288 291 290 289 287 284 287 288 292 294 290 288 291 293 294 295 296 295 292 289 286 289 287 289 290 291 292 287 287 288 288 290 293 292 291 293 292 290 290 291 291 291
289 283 283 280 285 285 286 287 287 288 285 288 283 286 283 285 285 286 289 285 285 285 283 284 284 286 282 285 285 285 287 287 286 282 286 287 288 287 290 294 296 296 297 297 298 295 285 287 289 289 290 290 290 285 290 293 290 293 292 292 294 294 294 292 290 288 293 288 284 289 291 289 292 294 287 287 288 288 291 291 292 291 293 295 294 291 291 288
283 284 286 287 283 280 283 283 288 287 288 288 285 287 285 284 285 283 287 286 287 284 284 283 281 285 288 287 287 284 285 286 287 283 286 287 286 287 289 290 293 295 295 293 295 294 287 287 290 290 289 291 292 286 285 288 291 291 292 293 293 294 293 290 291 294 293 288 286 291 292 290 293 295 290 291 291 291 292 293 294 296 293 292 291 290 290 289
287 286 286 288 281 283 287 288 288 288 287 288 286 287 285 285 284 287 285 284 284 284 287 283 283 284 284 287 287 285 286 282 283 287 286 285 287 287 287 289 292 294 294 293 294 292 287 285 289 290 288 289 290 289 286 284 286 289 291 291 293 293 292 293 293 295 294 292 293 293 292 292 295 296 294 293 292 291 292 291 290 290 290 290 290 290 290 291
284 285 282 286 287 285 286 287 287 287 284 288 285 285 286 285 284 284 283 286 282 284 285 284 285 285 285 285 287 286 287 288 288 286 288 287 286 288 287 290 287 292 295 292 293 294 291 286 290 287 285 286 288 289 288 287 288 287 290 292 294 294 293 292 293 294 294 293 294 293 292 292 297 299 298 296 290 290 289 289 291 289 288 289 291 291 292 292
289 289 289 286 284 284 286 286 286 285 283 284 284 285 287 286 285 285 283 286 286 285 285 284 286 282 285 285 284 286 290 289 288 290 289 289 287 290 289 286 292 289 292 292 292 290 292 287 289 287 284 284 287 287 287 287 287 287 287 289 291 292 290 292 291 294 292 290 292 292 290 291 297 300 295 293 293 293 292 293 291 290 289 289 291 292 293 293
289 290 289 288 282 286 284 285 284 284 280 283 284 285 286 286 287 287 283 285 286 288 287 287 286 286 284 284 284 286 288 288 290 288 289 292 289 283 283 285 288 291 290 291 292 290 289 288 286 286 284 283 287 287 286 287 286 283 284 288 290 292 294 294 296 296 296 296 292 289 291 297 299 295 294 294 296 298 297 295 293 293 291 290 291 292 293 293
Wind_Speed
29 28 27 26 25 24 23 22 20 19 18 17 16 16 15 15 18 18 17 14 14 14 13 12 7 8 10 12 13 11 9 5 3 3 4 7 5 6 1 11 4 5 7 3 3 3 1 1 1 3 1 1 1 2 1 2 1 0 2 4 1 3 3 3 4 7 1 2 2 1 1 3 1 0 0 1 4 2 1 3 3 2 2 3 4 1 6 8
28 28 27 26 25 23 23 23 21 19 18 18 17 16 15 16 17 17 18 16 14 14 15 14 12 10 9 11 12 12 6 2 6 5 14 3 8 8 5 6 3 6 7 3 5 4 5 1 1 1 2 1 2 1 0 1 0 3 2 3 7 4 4 4 2 4 2 1 2 1 1 4 3 4 1 2 1 0 1 0 2 1 3 4 2 4 9 9
30 27 28 27 23 24 23 22 22 21 19 18 17 16 15 14 15 16 17 17 15 15 13 13 13 11 9 13 13 7 5 4 1 8 14 8 6 11 10 4 4 7 4 2 3 6 7 8 5 4 1 1 4 2 1 0 1 2 5 5 6 7 3 4 3 1 3 1 2 2 1 3 1 1 0 2 4 1 6 4 1 2 3 2 1 5 8 9
29 27 28 27 27 26 24 23 22 21 20 18 17 15 15 14 14 15 17 17 15 17 17 15 13 13 13 14 12 5 3 4 6 4 3 12 10 8 8 6 4 4 2 2 4 5 2 5 4 4 1 1 1 1 2 2 3 1 2 6 5 3 1 2 6 2 2 2 2 1 0 2 0 1 1 2 4 4 6 6 8 9 7 6 5 7 7 9
27 27 27 27 26 24 24 22 22 22 21 19 17 16 15 14 14 14 15 17 16 15 16 17 17 15 14 13 10 2 5 2 4 5 2 17 16 10 8 5 6 3 3 3 7 3 5 5 4 2 2 3 1 1 2 0 0 3 6 1 2 2 3 3 4 5 4 2 4 1 1 2 0 1 2 7 6 7 7 8 8 7 9 11 10 9 7 9
28 29 27 27 26 24 24 23 23 21 20 20 18 15 14 15 14 14 15 16 16 16 17 16 16 17 17 15 8 2 2 10 1 1 4 13 19 16 11 7 8 5 4 4 6 2 7 3 7 2 1 2 4 7 2 1 0 4 2 2 2 2 2 0 3 4 5 2 3 2 2 1 1 1 2 6 8 5 6 5 10 7 11 13 12 11 9 9
31 27 28 27 27 26 26 23 23 23 20 19 20 16 15 15 15 13 14 16 16 14 17 17 16 16 18 14 4 3 3 6 1 5 3 7 14 16 13 9 10 5 4 4 4 7 3 5 7 4 3 2 1 3 1 2 1 1 3 0 4 2 3 2 0 4 3 8 3 2 0 0 1 2 1 3 7 9 6 3 5 4 3 7 10 12 15 16
31 30 27 27 26 27 25 23 22 22 21 20 20 18 16 15 14 13 12 14 17 16 16 16 17 19 20 11 9 6 6 10 5 2 4 6 12 14 10 7 8 5 5 6 7 6 8 8 8 4 3 7 2 5 0 2 1 4 4 3 2 1 2 1 0 0 1 0 2 3 1 3 3 1 1 4 8 7 5 1 1 5 7 7 10 13 12 12
31 31 27 26 26 27 26 24 23 20 20 21 19 18 16 16 14 13 12 12 15 15 16 15 19 20 16 9 8 9 12 9 1 1 3 5 7 10 12 4 6 8 5 4 5 4 7 5 4 5 5 5 2 5 1 4 6 4 5 2 0 2 1 0 1 0 1 0 2 2 3 5 6 0 3 9 9 5 0 1 3 4 7 10 11 13 12 12
33 29 27 26 26 26 27 25 24 23 22 21 20 18 17 16 15 14 12 12 12 13 16 17 19 21 8 9 6 10 4 4 4 4 7 8 10 8 9 6 9 8 6 4 3 6 5 5 8 4 5 2 5 3 2 4 4 2 3 3 4 1 0 0 4 1 0 1 1 2 1 2 1 4 7 2 9 1 0 1 3 7 9 10 9 9 10 12
32 31 27 27 26 27 27 27 24 23 24 24 21 18 16 16 15 14 12 12 11 13 14 16 16 16 8 7 12 13 2 2 1 3 8 11 11 10 3 4 5 7 6 3 4 5 4 6 4 4 1 4 5 1 3 3 1 1 3 0 1 1 0 1 0 3 1 2 3 2 3 3 3 1 7 5 3 2 4 3 4 6 8 10 11 10 11 11
29 29 27 27 26 26 28 28 26 24 23 22 21 18 16 15 15 14 12 11 11 13 14 18 21 8 2 6 9 6 2 0 1 6 8 10 8 7 8 4 3 4 7 7 3 2 1 7 5 4 3 4 3 2 3 3 0 1 4 3 5 2 3 2 4 3 2 3 3 3 4 6 4 8 4 9 8 3 4 4 5 7 8 8 9 9 7 12
29 31 27 26 26 26 27 28 27 25 23 20 19 18 16 14 13 13 12 10 11 11 14 19 15 1 5 11 6 1 1 2 4 6 7 9 7 9 10 7 2 2 3 5 3 0 2 3 3 5 3 1 4 3 0 3 0 3 1 2 2 2 5 6 0 1 3 2 3 1 7 8 12 11 6 7 7 6 4 5 6 7 7 7 8 9 10 8
28 28 27 27 26 26 26 27 27 25 22 21 19 17 16 14 13 12 13 9 10 11 15 19 9 4 3 3 1 2 2 2 5 8 7 7 12 4 9 8 4 2 3 7 4 3 4 4 7 4 1 3 3 1 2 2 2 4 2 2 3 3 5 3 5 3 3 1 3 3 7 12 11 4 5 8 7 9 10 8 6 6 6 7 8 9 10 11
28 28 27 27 26 25 25 26 26 25 23 21 20 17 16 15 13 13 13 8 11 11 13 14 7 7 3 2 2 4 1 1 7 6 7 12 12 5 6 9 8 5 3 6 4 2 5 7 5 3 1 1 1 2 2 1 1 1 4 6 0 6 2 1 1 8 10 0 1 5 8 14 14 4 5 6 6 6 10 8 6 6 7 8 7 9 10 11
31 29 28 27 27 26 25 25 25 25 23 22 20 17 16 15 14 13 13 7 10 14 10 8 3 3 4 3 2 3 1 4 6 6 3 6 11 10 8 8 4 6 4 3 3 3 4 4 3 3 2 2 1 5 3 2 2 2 8 1 7 4 4 2 3 5 10 2 1 8 8 6 7 6 5 1 4 4 7 7 6 6 7 8 8 8 9 9
31 30 28 28 27 26 26 24 24 24 23 22 20 17 16 15 14 13 10 7 9 8 6 4 4 1 3 1 2 7 3 3 4 2 3 1 3 16 13 9 4 4 5 5 4 5 4 3 1 1 1 3 2 5 5 6 4 7 2 3 1 7 3 4 3 3 6 6 5 5 7 17 7 2 1 1 0 4 5 8 8 8 7 8 7 7 9 10
30 26 26 27 27 26 25 25 24 24 23 22 19 17 14 16 16 17 12 9 6 6 6 3 5 5 7 1 6 7 4 5 5 6 4 2 9 8 14 7 6 7 3 3 3 2 2 3 1 6 3 3 4 7 12 14 11 5 4 3 1 1 6 7 5 4 7 3 8 5 8 17 15 9 5 5 1 1 5 7 8 9 7 6 6 7 8 10
27 27 27 27 26 25 24 24 25 24 23 22 20 19 15 12 6 5 8 5 8 6 7 8 9 8 6 12 8 5 4 4 7 12 6 8 3 5 3 6 13 11 2 2 2 4 1 2 2 6 13 10 12 13 13 2 6 8 8 7 5 8 7 8 4 2 8 5 6 7 10 15 20 11 9 9 6 6 10 8 8 9 7 6 7 8 9 10
30 28 28 28 27 25 24 24 25 25 26 19 14 12 7 9 8 6 5 4 3 6 3 14 14 2 4 4 7 1 3 9 8 4 8 6 13 9 7 6 4 6 8 4 1 5 4 9 8 12 15 16 12 9 7 2 4 6 6 6 6 6 3 2 3 3 3 2 8 10 12 15 19 12 9 7 3 6 12 15 12 9 9 8 8 9 12 12
29 24 28 30 28 26 25 25 25 25 27 16 17 14 11 14 16 12 12 7 9 4 2 7 11 2 0 2 3 10 9 2 1 6 9 7 12 16 7 7 9 8 9 7 4 1 3 10 12 13 11 11 11 8 2 0 4 9 7 6 7 6 8 5 5 1 3 4 3 7 8 14 18 15 11 6 2 11 15 14 11 11 10 10 11 11 11 12
31 27 26 29 28 28 27 26 26 26 25 14 15 11 5 14 2 4 13 10 7 3 4 2 5 3 1 1 1 2 5 4 7 8 2 8 10 14 8 8 13 15 12 7 2 3 8 12 13 8 3 5 4 7 5 3 4 5 8 8 6 8 1 4 3 0 2 3 8 4 6 11 15 15 10 6 9 14 13 9 12 10 11 12 12 12 10 8
31 30 31 27 28 28 28 27 26 26 14 13 12 10 8 6 1 8 6 6 3 1 1 1 7 2 2 3 2 0 9 7 11 11 12 9 10 7 12 9 11 8 9 11 10 7 6 11 14 4 6 6 3 4 5 3 1 4 3 4 9 3 6 7 4 1 3 5 1 1 5 9 12 13 13 12 11 14 13 10 13 10 13 15 15 12 11 12
27 29 32 29 31 29 29 29 26 19 13 17 16 9 3 7 8 12 9 4 3 3 3 1 2 3 3 6 1 2 7 3 6 12 6 9 13 6 10 13 12 9 13 16 17 12 10 4 5 7 6 8 6 6 8 6 5 4 6 6 5 4 8 5 1 0 0 1 1 3 8 10 8 13 12 10 8 11 14 9 10 12 13 13 11 10 12 15
27 29 34 30 27 29 29 29 15 13 13 12 7 3 5 8 8 9 10 3 4 1 3 2 2 1 4 1 1 3 1 1 0 6 10 12 10 6 7 4 6 12 15 17 15 13 14 9 7 13 9 7 7 8 10 9 9 6 6 9 6 5 6 5 0 3 2 3 1 3 4 7 5 14 14 11 1 4 6 4 12 16 13 10 12 16 15 13
28 28 32 27 31 30 32 17 14 13 14 11 6 6 5 7 5 6 11 5 1 2 3 9 3 6 4 1 3 4 2 2 1 4 10 8 3 5 5 6 5 15 13 15 13 6 13 5 5 7 9 10 12 10 8 8 9 8 8 9 6 7 7 4 3 3 3 6 2 1 8 10 2 5 5 7 6 10 10 6 14 14 12 10 13 15 15 15
30 29 27 25 27 29 19 8 13 14 14 6 6 5 5 6 3 4 7 5 2 4 8 1 4 2 3 3 7 6 9 7 2 2 10 8 12 2 9 8 3 1 4 4 1 9 7 13 10 8 9 11 9 11 10 14 10 11 4 10 6 8 6 5 5 7 4 0 2 1 2 7 11 11 5 7 8 10 12 10 13 14 12 12 13 14 13 14
25 30 31 30 32 29 7 11 17 16 12 10 11 9 6 6 4 3 6 5 5 7 6 2 3 1 2 5 10 7 2 6 8 6 10 6 7 2 3 13 14 14 12 10 16 5 15 13 14 13 13 10 12 18 13 12 9 3 4 11 10 6 3 3 4 3 1 2 6 2 0 3 8 5 3 6 12 11 15 17 17 14 13 13 14 14 13 14
25 26 32 28 30 14 8 11 14 12 5 12 9 9 6 8 6 7 5 5 4 2 5 9 1 3 3 6 7 5 3 1 1 5 5 3 2 4 7 12 11 11 11 19 16 4 3 15 17 17 14 14 14 14 7 14 13 6 3 5 5 5 5 2 3 5 0 1 10 7 5 6 17 5 6 1 5 10 12 15 15 16 17 16 14 12 12 12
25 25 26 30 22 7 7 9 8 8 13 12 10 10 9 6 6 6 6 6 4 1 4 3 9 9 10 12 6 10 5 0 1 3 7 6 8 2 2 0 7 9 9 11 11 1 2 4 9 9 11 13 12 4 7 12 5 3 5 6 2 4 3 3 4 1 2 8 13 10 10 9 13 5 11 8 10 8 10 8 12 15 12 12 12 12 11 7
25 24 22 25 13 8 12 10 11 13 15 14 13 14 9 5 5 8 10 6 6 2 4 7 8 15 18 17 11 6 4 3 1 7 8 3 5 3 2 3 3 5 6 11 13 4 1 5 8 4 10 2 7 4 3 2 4 1 2 4 5 1 2 0 1 1 5 8 15 10 13 13 12 2 3 7 3 7 12 14 17 13 12 13 10 10 8 6
25 25 27 19 9 9 13 12 14 14 16 18 17 13 10 7 1 10 5 2 3 4 9 6 6 12 16 13 12 13 13 2 4 9 11 10 8 10 11 10 11 7 9 13 13 7 6 8 5 5 1 12 4 9 1 4 5 3 3 4 11 4 4 7 3 8 8 11 3 3 11 3 19 17 1 2 8 10 8 11 13 12 13 9 7 9 8 7
30 25 28 14 12 7 8 12 12 13 16 17 15 11 9 8 12 6 5 5 3 7 5 8 12 15 16 16 13 12 7 12 4 7 11 10 11 11 10 13 12 13 8 14 12 11 8 3 5 3 3 8 11 11 5 3 10 9 8 8 10 5 6 8 6 2 5 9 2 1 3 10 10 9 13 14 12 11 14 14 14 11 10 10 9 8 7 7
29 29 19 12 9 7 14 16 13 18 18 13 13 10 5 10 9 10 8 4 3 3 14 9 11 9 16 14 12 13 9 5 11 8 14 7 12 11 11 13 9 6 7 3 13 12 8 12 10 12 8 11 15 17 20 17 18 18 12 12 11 11 5 11 8 13 14 11 1 2 6 6 2 6 3 8 12 9 7 10 7 8 11 10 8 9 11 11
29 23 13 11 8 10 16 13 17 20 14 12 11 12 15 11 7 15 7 1 2 1 4 10 13 12 9 7 5 12 8 8 9 8 12 11 14 11 13 13 14 11 2 6 3 4 19 10 6 23 9 19 18 15 10 5 3 8 5 4 4 10 3 7 3 4 7 4 4 4 7 4 11 3 4 7 8 11 9 11 10 12 9 7 8 11 11 10
26 12 11 8 11 7 17 12 17 17 15 14 11 11 13 11 10 9 8 5 2 6 10 10 10 12 9 8 3 12 9 3 8 7 6 12 7 13 12 10 13 16 10 11 4 5 2 10 5 14 7 18 20 14 8 12 11 8 7 11 14 3 5 3 2 0 3 2 11 2 7 10 8 16 12 13 7 13 10 12 11 13 12 5 9 11 10 11
11 13 10 11 10 11 11 16 14 15 12 13 13 11 10 6 3 9 7 14 4 12 12 15 9 11 10 9 7 11 7 4 8 10 7 8 10 9 9 7 7 13 13 9 5 0 5 2 6 12 10 12 19 15 14 17 2 8 7 12 4 4 3 5 7 1 1 5 6 5 12 11 2 15 5 16 14 14 16 15 14 14 7 7 11 11 11 11
11 10 11 14 13 13 12 14 16 12 11 11 12 9 5 7 1 6 4 5 5 4 7 8 2 10 12 13 13 13 10 13 9 11 7 14 5 12 13 8 10 12 15 10 5 3 3 6 1 10 17 13 3 5 6 3 1 9 11 6 11 5 7 0 1 5 3 6 5 6 12 15 11 17 2 6 16 18 19 23 12 5 7 9 9 12 9 8
9 10 9 13 11 12 10 12 11 13 11 11 11 12 5 3 2 4 6 9 3 8 12 7 5 8 10 11 8 11 16 15 13 11 10 8 9 12 18 10 9 14 17 17 10 3 1 7 1 6 13 6 8 12 15 12 3 1 4 3 1 2 3 9 10 1 3 7 2 6 5 11 10 14 11 11 13 17 18 18 15 15 11 10 9 9 9 9
12 6 4 11 14 14 12 12 12 9 9 13 14 8 6 9 4 3 5 13 3 6 3 8 1 7 10 7 11 11 11 15 15 10 10 6 12 5 15 15 5 8 14 17 13 9 5 2 10 0 3 10 9 10 16 16 14 6 6 8 4 4 1 3 2 5 5 7 9 6 12 7 11 6 7 14 9 11 14 16 15 15 15 16 14 12 10 9
6 6 5 14 16 15 15 10 10 12 12 6 7 3 4 7 4 0 2 3 2 3 3 7 9 11 10 10 8 6 6 10 8 9 9 6 14 6 6 11 9 10 6 11 15 10 4 4 10 2 4 10 6 13 24 22 20 17 17 18 19 17 9 9 10 4 5 5 5 6 18 12 5 6 13 15 14 15 14 15 16 15 12 9 8 8 9 9
10 7 5 18 17 20 17 14 4 7 5 12 12 7 4 4 6 3 2 2 4 2 3 3 2 4 7 8 8 11 7 11 12 9 8 11 9 13 6 19 17 13 14 13 15 14 9 3 9 12 6 13 14 8 5 7 15 17 16 15 14 12 10 10 13 9 1 9 2 4 2 19 5 9 10 14 14 15 17 15 16 13 7 6 8 9 7 7
6 4 2 22 19 21 16 9 10 11 9 9 6 4 4 1 3 3 5 1 3 1 2 3 6 6 4 7 7 8 12 7 13 12 7 14 13 18 7 18 13 12 13 7 8 9 4 4 6 10 3 4 8 5 4 3 8 12 8 3 9 14 16 16 13 9 13 10 11 7 10 17 7 6 10 12 14 15 15 15 14 10 9 8 8 8 9 8
5 4 6 12 21 16 15 13 13 13 9 4 8 5 4 2 7 6 8 6 4 3 5 5 1 6 5 6 5 10 14 5 8 14 10 7 11 12 8 11 17 10 14 9 12 11 9 5 9 8 8 3 8 5 6 2 1 11 15 15 14 15 16 3 2 2 7 12 14 11 19 14 14 9 6 6 6 6 10 9 5 10 9 8 7 8 7 7
6 4 4 4 11 16 16 10 12 13 15 14 14 11 8 2 4 11 12 9 2 3 4 3 4 4 1 2 8 6 12 15 4 14 10 9 9 4 10 13 18 13 14 10 15 10 15 7 14 17 16 13 15 15 12 10 12 5 9 15 13 16 20 10 15 6 12 10 15 12 14 19 7 3 4 7 5 7 10 7 5 6 9 9 8 8 8 6
5 8 1 1 4 12 5 5 2 12 14 13 12 13 12 7 1 4 8 6 4 3 2 3 2 3 4 5 6 7 8 10 9 4 13 8 5 3 8 15 17 14 18 17 13 13 5 5 11 14 16 20 15 6 3 3 3 11 12 17 21 21 24 22 15 15 18 13 15 17 20 20 17 4 7 8 7 10 12 9 8 9 11 11 9 9 9 10
2 3 6 4 3 3 9 5 6 6 13 14 13 10 14 15 5 1 1 5 5 6 2 3 5 8 4 10 12 10 12 13 6 2 13 16 12 3 4 14 14 17 18 14 14 9 3 11 18 17 20 18 8 6 2 8 12 15 19 24 24 24 21 20 17 19 16 13 18 9 15 16 25 21 6 7 7 7 7 7 8 8 12 13 8 5 5 4
5 2 2 2 2 10 12 8 12 12 8 14 8 8 15 14 9 8 2 3 4 3 7 2 2 7 11 17 13 12 12 12 14 12 3 10 6 1 2 4 11 16 18 7 5 8 7 16 19 18 24 22 20 5 4 1 6 11 16 17 23 22 21 22 24 25 20 17 21 21 20 21 26 25 9 12 10 11 13 13 15 15 7 2 3 5 6 5
1 2 2 2 3 1 12 18 22 18 15 17 7 12 14 17 16 11 5 4 4 4 8 12 11 15 9 8 13 12 15 12 13 11 9 7 15 8 7 0 8 8 13 9 13 6 2 9 9 14 18 20 20 13 3 4 2 3 10 14 16 18 21 22 23 24 23 18 17 20 17 21 22 20 8 11 8 8 8 5 2 2 5 5 5 6 7 7
3 4 3 1 4 6 9 11 10 12 11 17 12 12 14 18 18 7 1 8 8 9 1 11 12 10 10 10 14 17 16 20 18 18 10 11 10 10 8 10 3 7 12 14 7 9 14 12 14 10 9 16 16 13 8 8 9 11 8 8 13 16 18 19 18 20 19 19 19 20 21 20 20 20 16 6 4 4 5 5 7 6 5 6 7 9 10 11
0 1 0 8 8 3 7 8 11 11 9 4 11 10 11 18 17 10 4 1 9 11 7 13 10 5 5 9 7 11 10 10 6 9 5 9 15 8 9 4 5 8 12 11 8 3 12 11 7 8 12 14 13 14 16 11 10 15 16 13 12 13 17 18 20 20 19 22 24 25 21 19 21 22 5 3 5 7 8 9 7 7 8 8 9 11 11 10
1 0 2 1 6 1 7 5 4 9 7 3 2 7 8 18 13 12 4 2 4 4 5 8 11 12 6 7 14 13 9 7 5 5 3 4 6 5 2 2 2 9 11 13 5 10 9 8 9 9 13 16 15 12 15 14 11 14 18 16 16 17 15 13 18 19 20 16 17 18 21 24 23 1 4 10 14 16 14 9 8 10 9 9 12 13 10 9
Wind_Direction
193 192 192 194 197 194 191 189 193 193 193 191 189 191 190 190 192 190 185 176 172 170 165 159 173 167 157 151 152 143 139 126 144 154 183 228 166 228 227 214 152 147 140 98 86 101 50 59 159 352 21 48 308 120 268 43 14 82 155 119 216 201 171 208 170 191 203 124 240 78 164 116 154 40 271 41 34 45 22 86 313 341 345 260 269 283 151 134
197 190 188 190 195 195 192 188 187 188 191 193 190 187 188 191 191 191 189 180 173 172 163 165 162 165 173 157 143 143 120 103 170 192 217 143 183 220 212 207 138 134 119 122 156 155 127 182 179 60 124 121 319 90 6 195 16 128 108 115 217 183 235 152 204 210 131 245 165 177 168 158 198 140 250 101 267 234 128 302 15 341 333 359 34 125 133 141
206 188 186 185 186 192 195 191 186 186 189 189 192 185 185 186 189 189 190 180 176 174 171 157 162 168 167 138 137 144 113 65 1 235 237 215 206 209 202 179 164 156 150 153 193 150 167 184 164 117 17 116 356 169 51 246 113 214 127 206 234 204 235 186 174 207 217 140 104 103 155 163 213 138 12 181 199 328 190 196 312 247 249 255 164 148 151 156
212 186 184 184 186 191 192 192 188 184 184 186 189 186 184 184 186 190 186 184 177 183 178 169 166 165 156 146 136 144 99 103 230 234 233 201 218 225 221 172 155 162 116 48 164 149 88 88 93 116 104 103 295 61 131 242 134 250 114 195 221 201 207 227 162 210 217 166 133 139 356 129 289 204 129 178 123 269 266 239 176 200 205 194 184 168 162 165
213 198 184 180 180 183 188 193 188 184 180 180 184 189 183 182 182 189 185 182 181 177 174 172 169 158 144 138 139 141 125 182 241 181 225 181 199 204 222 157 146 135 151 102 63 56 121 132 113 64 96 206 347 39 249 255 150 113 210 196 189 172 245 236 193 177 139 155 103 71 132 201 231 102 121 153 170 224 217 234 225 205 176 163 173 184 172 176
212 200 185 182 178 174 184 190 192 184 178 175 178 180 182 182 179 182 185 183 182 175 168 165 161 153 143 143 150 103 163 204 114 102 274 194 184 189 197 155 137 131 125 119 123 229 121 98 118 175 165 118 204 170 269 162 89 208 309 275 212 208 197 243 173 202 132 109 129 139 222 57 61 275 201 175 205 236 223 226 213 199 179 179 165 160 179 185
209 206 185 183 178 175 181 184 188 187 177 175 175 176 179 181 179 179 185 181 179 173 170 163 161 150 145 138 113 153 193 285 243 214 278 210 189 183 181 134 119 120 135 141 137 154 149 129 148 173 124 152 287 214 260 141 19 126 225 274 254 149 206 306 89 105 117 120 173 190 66 271 64 256 117 194 246 244 260 252 253 191 144 138 156 181 181 190
209 206 185 183 179 175 176 180 185 189 182 177 176 173 175 179 175 179 183 183 179 177 175 165 158 147 141 134 139 196 195 244 203 256 250 203 180 179 145 113 121 126 145 176 175 156 151 146 174 132 137 165 220 171 191 101 20 199 249 206 271 105 244 280 111 62 121 81 159 104 112 245 190 223 28 255 254 262 277 2 55 130 144 168 173 185 194 196
211 203 187 181 178 175 175 177 181 180 186 179 176 170 170 174 176 176 178 179 181 171 170 168 161 151 152 147 156 149 224 222 108 264 118 133 160 139 129 128 142 142 168 173 192 167 138 194 133 182 198 172 196 169 253 155 269 202 217 157 125 211 274 248 271 303 332 173 145 100 237 266 241 34 262 241 265 250 111 96 131 138 159 182 193 192 191 199
206 200 184 180 177 172 170 172 175 179 183 182 175 172 171 171 175 176 174 175 176 174 167 174 160 154 162 145 142 192 211 328 321 83 84 107 103 124 150 145 149 147 143 197 154 153 177 191 167 177 130 124 142 189 166 185 225 196 162 185 180 267 207 358 193 252 296 211 166 197 275 267 323 136 272 286 242 267 55 108 163 161 188 198 200 201 205 201
204 200 183 177 176 173 168 168 174 174 182 178 172 170 170 171 173 172 169 171 169 173 166 165 161 150 166 176 162 204 328 12 308 102 105 103 109 113 49 11 152 136 138 160 178 190 180 144 146 104 46 216 134 252 147 222 115 93 181 146 290 336 247 335 314 265 330 271 182 157 249 288 291 174 223 246 288 149 165 175 170 190 201 204 209 203 206 209
201 202 180 175 175 172 167 166 169 173 176 175 167 165 169 172 169 168 168 170 169 170 167 160 168 167 140 178 206 192 212 125 165 132 113 111 102 118 116 50 346 139 150 165 186 29 269 162 144 143 181 133 185 104 250 190 78 190 132 222 267 322 283 243 206 232 152 263 144 146 327 283 236 232 214 216 245 171 175 179 201 206 216 218 217 217 208 215
196 196 184 174 175 174 168 164 164 167 169 165 161 160 166 171 166 162 166 168 172 166 168 167 171 154 135 192 219 256 281 278 113 114 100 98 90 76 91 76 15 83 139 129 106 314 46 118 138 90 354 99 164 151 239 99 129 97 56 149 313 291 273 238 253 74 146 253 136 136 270 244 242 244 207 224 235 236 217 210 214 217 218 224 222 220 225 225
194 194 183 172 174 174 170 165 162 163 163 159 157 158 164 169 164 160 163 159 167 160 165 154 146 158 190 213 35 296 294 173 117 113 124 132 113 71 74 88 38 10 61 102 133 154 91 85 95 100 97 101 186 319 64 20 67 167 218 100 199 129 260 203 174 159 182 215 174 103 247 270 258 255 234 225 214 222 235 232 226 228 228 226 224 224 227 227
188 190 180 171 172 173 170 165 161 160 158 155 152 156 160 166 165 160 159 152 168 152 159 139 145 106 225 246 310 317 113 104 131 150 156 137 121 88 85 62 44 16 68 110 115 37 109 93 92 142 181 244 82 85 44 58 7 175 132 224 190 191 293 249 284 159 203 265 209 110 261 256 270 260 251 235 213 209 237 239 229 228 231 230 226 228 234 235
187 186 178 171 172 171 170 165 160 157 155 149 148 152 158 158 164 161 159 151 160 133 123 115 159 136 118 220 213 351 187 146 185 160 197 129 140 140 136 86 46 6 44 30 83 95 37 100 135 175 97 41 155 137 111 66 284 277 208 135 196 158 235 345 216 209 203 130 297 186 245 293 301 267 255 283 174 201 236 254 258 242 240 240 233 228 231 240
186 182 174 170 170 171 168 164 158 154 149 145 142 146 154 151 154 160 146 111 138 126 128 138 119 75 178 288 43 165 167 225 112 121 137 77 70 122 111 104 47 38 52 44 36 77 3 84 351 62 38 141 163 139 131 221 233 218 182 167 228 177 165 239 299 271 225 173 219 231 224 250 239 331 15 351 96 199 233 255 260 252 239 234 237 236 231 229
182 177 173 169 169 169 166 162 157 151 144 141 138 141 152 152 124 90 70 78 73 90 84 30 95 107 271 181 190 181 158 161 158 144 116 113 124 117 126 126 97 76 32 45 346 112 334 86 330 194 156 183 165 184 191 213 205 161 144 171 164 121 196 202 164 243 160 240 212 222 238 260 257 254 278 259 239 215 248 250 254 256 249 246 241 242 240 235
173 174 172 167 167 166 164 161 156 149 143 136 131 119 115 109 91 70 96 136 134 135 176 182 162 198 191 203 191 107 152 147 106 139 149 124 126 103 40 109 132 120 79 108 296 109 13 106 114 164 196 193 203 199 205 70 122 177 176 183 171 180 208 212 236 282 171 186 213 223 233 252 260 248 245 252 247 253 263 256 261 267 266 254 237 236 237 237
175 173 172 165 165 164 162 160 156 151 140 135 123 116 122 147 151 163 158 184 227 186 46 172 184 128 47 77 143 193 99 128 136 160 122 131 126 120 108 126 104 102 123 176 145 205 144 199 197 196 200 201 199 203 218 281 143 140 171 188 208 197 266 277 233 239 208 148 224 222 232 247 261 258 247 240 268 278 267 263 259 257 259 249 241 234 235 235
174 174 172 162 161 161 160 158 156 152 141 138 140 146 171 162 152 174 164 186 205 188 51 187 188 128 305 285 124 131 131 100 21 143 153 151 134 130 168 132 145 144 162 165 177 96 175 206 221 210 206 191 191 188 196 299 160 167 177 185 218 190 218 210 213 235 239 183 287 221 235 249 260 265 255 249 198 253 248 254 254 251 248 248 239 237 235 240
173 174 176 160 160 159 158 158 155 151 144 146 154 163 156 181 165 155 149 171 215 254 30 338 152 45 352 56 218 145 94 111 157 149 168 149 167 157 193 165 169 187 159 136 121 241 202 223 220 209 102 130 150 180 185 169 186 183 181 195 211 230 278 299 246 249 258 172 258 245 228 252 260 263 265 239 232 248 248 233 246 241 246 249 247 242 239 239
167 170 173 163 158 158 158 155 157 146 144 156 165 175 180 171 293 99 81 76 157 232 341 33 162 136 73 360 337 52 152 165 168 169 169 164 175 191 153 170 190 172 146 146 189 235 250 227 228 135 149 146 140 179 193 248 264 182 161 148 217 149 147 241 281 171 224 181 234 257 267 269 277 276 268 249 231 250 253 238 245 231 241 242 245 242 240 240
159 166 169 166 160 159 155 155 150 144 163 166 172 175 175 140 146 129 97 135 143 202 176 206 169 122 169 143 228 129 160 178 170 173 177 163 169 147 164 181 171 148 178 174 185 206 228 360 148 134 161 160 172 196 198 210 221 222 203 202 185 162 208 178 226 151 272 280 104 334 301 274 246 277 277 260 228 248 261 255 260 251 239 245 257 262 240 242
156 166 167 165 154 155 154 143 151 164 158 163 165 212 169 144 144 140 100 56 21 309 23 307 84 212 170 36 58 127 278 38 108 166 176 174 147 144 195 165 154 186 179 184 184 200 243 243 159 183 163 144 176 200 206 192 218 226 224 199 191 188 184 223 98 124 14 325 245 162 340 275 231 236 252 266 358 275 259 252 256 253 249 243 245 246 250 247
149 161 163 163 157 154 147 144 169 157 155 172 165 200 156 127 126 106 95 82 167 255 111 218 129 234 126 173 88 137 24 223 201 163 167 183 131 155 139 197 174 191 180 175 181 202 224 192 187 180 165 179 194 208 207 190 215 215 230 182 182 200 204 178 182 118 270 241 309 76 207 273 336 293 252 259 271 262 270 240 258 257 251 243 239 243 243 242
155 158 154 163 154 152 149 170 147 136 156 183 177 156 159 108 108 105 96 358 350 185 159 66 162 265 191 190 135 143 176 205 47 159 173 190 169 276 168 162 170 41 147 141 97 225 155 178 182 176 171 192 193 214 202 188 198 229 157 154 183 202 203 202 166 190 228 256 298 84 165 266 282 253 254 255 262 269 279 262 251 258 256 245 243 242 241 241
149 154 158 164 160 164 143 132 148 163 171 150 151 161 118 132 88 73 84 150 243 125 171 191 209 342 73 185 147 163 221 141 156 206 189 173 103 8 157 178 185 167 156 151 204 182 168 171 173 174 181 187 205 213 199 180 201 242 150 158 195 169 165 152 186 166 257 32 273 167 165 300 246 275 261 235 251 248 255 261 260 257 253 247 244 242 238 238
148 153 152 165 164 131 100 133 155 159 117 125 122 123 105 76 84 116 147 141 249 94 241 135 233 78 107 136 164 198 56 14 140 154 160 4 338 145 178 201 195 167 165 173 202 149 172 190 186 175 170 198 212 220 172 172 212 228 199 128 105 88 78 113 142 140 314 165 255 215 177 226 274 188 225 260 231 240 239 249 255 253 248 249 250 247 241 242
147 153 152 157 154 89 100 125 128 125 135 127 126 117 104 91 115 143 171 245 120 218 158 179 179 181 157 158 169 195 187 256 108 117 163 162 181 27 320 338 177 161 180 211 228 115 196 311 158 175 184 210 208 194 171 200 201 70 122 116 64 46 83 62 56 56 105 238 245 219 189 180 277 201 197 180 220 199 240 268 259 254 253 256 254 249 248 248
147 149 147 149 156 155 125 135 140 143 132 135 133 130 126 53 151 158 182 209 65 189 98 162 177 145 161 161 168 196 195 134 72 157 169 130 213 147 162 144 110 175 187 198 224 240 51 126 158 229 197 76 109 108 122 112 82 203 166 127 102 268 29 38 33 25 225 250 245 200 196 168 232 284 245 210 220 213 205 227 243 249 251 250 250 256 259 258
149 149 150 161 140 135 149 147 148 142 143 141 135 142 144 121 265 194 175 55 84 211 154 131 156 155 161 168 173 173 181 128 184 170 178 178 178 187 183 198 151 185 202 179 212 203 245 186 187 187 175 150 144 113 345 110 139 170 328 164 176 207 150 226 126 219 201 233 272 218 155 191 231 237 202 241 244 244 224 238 246 248 253 256 259 261 262 256
153 153 157 148 133 138 100 128 142 138 139 143 135 148 146 157 178 178 179 148 253 160 211 168 166 170 166 167 189 175 175 189 150 194 176 196 203 205 203 200 178 192 187 185 199 184 226 218 202 181 138 196 150 168 152 154 175 180 187 182 180 190 196 224 198 275 273 265 225 90 174 232 262 275 226 241 260 236 237 236 237 245 257 261 259 264 260 244
154 155 158 154 142 124 136 144 145 141 140 143 136 136 149 175 191 177 182 171 177 14 157 162 165 164 169 178 183 163 175 209 162 182 181 171 197 204 215 221 202 217 62 168 202 172 197 211 217 156 218 162 189 195 184 188 177 195 189 182 196 183 179 209 190 200 213 227 14 239 141 223 156 243 305 231 243 274 285 272 264 248 245 250 259 270 275 276
152 155 142 138 110 149 136 151 147 145 137 137 139 164 168 183 160 180 203 200 275 179 146 152 152 157 185 204 182 180 170 183 181 164 188 190 193 200 195 210 206 202 144 158 231 197 209 225 179 189 180 170 193 207 190 102 136 201 172 187 255 220 120 217 189 217 239 252 272 223 213 195 228 262 274 233 269 273 266 271 271 269 255 246 263 255 255 254
148 149 137 134 144 174 146 160 148 143 145 140 150 177 187 178 180 170 200 139 170 156 152 136 149 165 179 186 193 176 227 160 175 173 209 202 208 207 204 199 202 199 184 206 139 210 161 230 174 185 159 178 196 188 183 146 197 174 152 210 214 109 139 68 352 296 66 48 251 143 296 274 321 281 263 282 275 270 263 259 259 253 254 229 251 255 251 250
144 135 148 137 140 163 168 149 149 146 148 155 162 185 185 195 205 172 162 178 183 150 148 154 187 160 164 183 181 180 192 81 177 181 205 166 231 210 206 232 202 203 216 191 235 227 173 225 181 168 200 212 205 190 180 188 149 95 204 214 73 70 96 176 216 14 114 205 258 187 235 259 83 276 178 211 246 263 273 263 236 248 251 240 244 247 243 242
142 149 140 154 154 158 170 153 141 143 145 159 185 180 189 192 312 148 125 106 90 128 144 164 116 167 177 173 188 178 177 186 175 176 212 176 280 173 203 204 203 204 204 219 197 261 95 266 278 202 193 200 146 114 251 274 346 194 208 156 148 202 237 140 177 206 157 217 243 255 218 246 197 241 92 227 214 228 238 251 243 235 236 230 240 246 250 256
134 149 141 147 146 148 164 146 136 147 153 169 185 194 187 219 189 178 179 157 137 156 171 183 125 193 169 190 178 183 171 192 171 192 178 191 213 185 198 181 209 196 200 195 217 198 59 218 241 213 198 143 152 167 207 204 201 325 99 157 182 73 257 170 201 237 174 246 280 273 155 252 198 236 197 217 207 222 234 247 260 253 244 239 233 243 247 246
135 138 166 146 150 147 143 128 134 154 165 180 181 207 156 196 194 220 172 163 170 143 218 171 209 153 185 194 175 173 189 195 185 190 197 156 209 175 191 187 180 194 200 197 208 186 247 139 238 104 176 148 212 178 203 189 187 191 191 192 178 201 244 131 274 209 170 216 227 281 271 253 245 209 188 216 209 222 229 242 248 252 243 240 237 233 245 248
126 131 137 153 154 146 137 133 154 171 178 195 194 177 145 192 141 222 85 21 109 9 148 178 161 180 172 171 199 170 178 196 193 193 193 187 184 223 204 184 166 195 182 203 211 190 209 178 225 165 181 206 188 190 203 194 188 189 191 200 189 178 187 184 225 165 210 210 223 196 251 259 271 194 185 204 210 218 221 218 233 237 236 229 238 239 234 244
146 159 181 157 151 149 146 149 169 164 178 188 193 164 197 178 161 184 93 18 93 160 349 128 179 153 169 193 169 180 167 190 196 193 202 204 204 218 189 186 183 169 171 196 206 198 191 160 209 218 205 198 205 208 254 223 197 202 194 210 195 193 187 196 211 200 132 227 158 210 319 267 190 190 193 196 209 213 221 222 233 248 252 250 244 243 250 237
160 134 354 155 154 154 154 171 165 173 191 205 167 197 69 47 125 132 151 210 173 85 102 162 189 167 237 177 176 169 170 196 189 208 191 207 218 209 187 186 177 178 177 200 197 210 70 225 208 243 300 293 303 337 328 310 212 214 245 319 186 202 192 201 211 193 201 196 219 241 250 266 246 207 210 197 199 210 223 230 238 256 255 240 241 255 250 252
111 119 114 162 157 160 165 177 170 169 193 163 185 182 31 167 159 154 186 192 169 164 168 167 262 222 187 185 169 184 172 202 207 202 216 202 234 208 213 192 175 186 173 190 192 155 201 177 200 216 231 227 246 308 300 333 236 219 202 207 205 202 203 214 66 50 202 210 212 190 241 251 255 172 203 236 251 257 250 257 226 245 257 257 252 250 251 251
110 58 60 352 168 167 186 188 177 177 181 178 176 187 178 170 219 188 176 189 110 152 122 240 196 155 147 181 192 179 189 196 160 212 216 202 229 200 197 189 193 191 201 180 189 149 214 169 191 214 201 200 196 201 206 227 227 223 229 203 206 197 197 176 222 193 228 201 199 212 239 244 255 31 216 234 231 246 252 255 276 239 253 257 259 260 252 237
164 149 303 28 24 168 224 35 159 178 179 173 183 199 185 182 332 343 180 187 147 143 136 133 23 91 138 137 192 192 202 212 198 168 197 216 224 232 185 195 196 200 201 190 172 149 212 190 219 218 221 224 227 232 252 188 127 197 202 205 205 208 199 201 204 208 215 212 216 214 223 245 248 243 231 233 210 215 234 240 238 250 251 247 239 241 228 215
73 132 155 179 72 22 169 178 185 181 190 172 188 177 189 192 153 137 231 187 214 158 120 136 165 166 234 180 191 206 200 202 202 152 204 202 212 225 238 192 194 206 200 195 181 160 140 212 216 219 232 237 226 160 225 161 185 199 197 209 209 207 204 203 205 216 208 220 238 222 234 239 252 238 211 235 230 228 239 235 238 243 247 240 249 265 294 304
151 220 83 234 142 163 137 217 196 195 196 173 195 164 192 177 167 174 74 287 138 187 142 309 192 223 192 193 184 203 194 208 200 213 190 226 192 282 184 228 196 204 200 213 224 182 167 218 214 211 228 229 232 188 150 95 196 205 217 216 212 210 207 207 214 217 206 210 223 221 213 226 244 246 192 214 202 205 216 216 218 223 237 275 246 240 230 230
89 88 92 15 104 227 203 179 178 185 180 179 183 179 183 181 188 180 167 163 158 212 190 201 204 205 202 213 197 203 188 193 219 214 197 182 202 173 196 89 260 222 193 183 191 193 146 234 221 219 230 230 227 214 172 171 188 191 220 223 228 225 223 215 217 220 217 225 236 242 237 235 244 255 212 224 202 215 230 254 301 258 227 210 218 230 230 227
172 140 167 59 61 98 112 118 153 161 177 183 185 196 184 183 180 149 144 163 173 207 181 209 195 192 177 195 209 206 196 200 196 203 193 185 204 195 204 195 148 203 190 200 186 198 198 221 203 208 231 244 241 235 210 210 210 229 207 220 230 230 228 230 233 233 231 235 238 245 247 248 246 243 236 209 146 214 248 242 225 236 224 206 214 222 221 221
98 7 338 137 116 129 99 124 141 155 154 214 195 186 180 182 181 158 170 226 194 175 185 194 159 144 170 176 224 244 203 167 130 181 160 179 196 197 183 238 168 171 195 201 192 212 204 231 201 199 227 240 228 223 230 220 215 230 233 219 216 224 232 220 224 220 219 220 226 236 243 247 251 247 245 155 183 206 211 219 224 230 226 218 214 226 223 223
348 329 84 33 94 260 133 109 110 122 173 205 154 182 179 175 160 141 119 211 173 192 172 155 159 144 193 190 209 212 201 164 168 142 161 65 105 83 76 122 48 195 181 204 174 189 191 190 206 192 221 234 231 207 215 220 234 244 223 212 215 223 211 220 240 241 237 231 232 228 237 237 249 320 172 219 197 216 226 216 224 231 225 214 218 219 227 227